Flag for Saudi Arabia Weather past 2 weeks in Medina, Saudi Arabia

Now
95 °F

Clear.


Feels Like: 91 °F
Forecast: 74 / 100 °F
Wind: 13 mph from West

Location: Madinah

Current Time: Mar 28, 2015 at 7:35:41 PM

Latest Report: Mar 28, 2015 at 7:00 PM


Visibility: 5 mi

Pressure: 29.86 "Hg

Humidity: 16%

Dew point: 43 °F

Location of MedinaLocation

Historic Weather in Medina — Graph

°F

Medina temperature yesterday

Maximum temperature yesterday: 95 °F (at 4:00 PM)
Minimum temperature yesterday: 73 °F (at 4:00 AM)
Average temperature yesterday: 83 °F

Past Weeks' High & Low Weather Summary

 TemperatureHumidityPressure
High100 °F (Mar 28, 5:00 PM)64% (Mar 25, 6:00 AM)30.18 "Hg (Mar 25, 6:00 AM)
Low61 °F (Mar 19, 7:00 AM)1% (Mar 21, 2:00 PM)29.83 "Hg (Mar 19, 4:00 PM)
Average79 °F23%29.98 "Hg
* Reported Mar 13 6:00 PM — Mar 28 6:00 PM, Medina, Weather by CustomWeather, © 2015

Note: Actual official high and low records may vary slightly from our data, if they occured in-between our weather recording intervals... More about our weather records

Advertising

Medina weather history for previous 24 hours

 ConditionsComfort  
Time TempWeatherWind HumidityBarometerVisibility
6:00 PM
Sat, Mar 28
99 °FPassing clouds.16 mph13%29.86 "Hg5 mi
5:00 PM100 °FScattered clouds.13 mph11%29.83 "Hg5 mi
4:00 PM99 °FScattered clouds.15 mph13%29.83 "Hg4 mi
3:00 PM99 °FPassing clouds.9 mph13%29.86 "Hg2 mi
2:00 PM99 °FSunny.9 mph14%29.89 "Hg2 mi
1:00 PM95 °FSunny.13 mph19%29.92 "Hg2 mi
12:00 PM91 °FSunny.13 mph26%29.98 "Hg2 mi
11:00 AM88 °FSunny.8 mph33%30.01 "Hg2 mi
10:00 AM84 °FSunny.13 mph40%30.04 "Hg4 mi
9:00 AM81 °FClear.14 mph48%30.04 "Hg5 mi
8:00 AM77 °FClear.14 mph54%30.01 "Hg5 mi
7:00 AM75 °FSunny.9 mph57%30.01 "Hg10 mi
6:00 AM75 °FClear.14 mph57%30.01 "Hg10 mi
5:00 AM77 °FClear.9 mph54%29.98 "Hg10 mi
4:00 AM77 °FClear.12 mph51%29.98 "Hg10 mi
3:00 AM79 °FClear.12 mph48%30.01 "Hg10 mi
2:00 AM79 °FClear.12 mph45%30.01 "Hg10 mi
1:00 AM81 °FClear.14 mph39%30.01 "Hg10 mi
12:00 AM81 °FClear.16 mph39%30.01 "Hg10 mi
11:00 PM
Fri, Mar 27
82 °FClear.16 mph37%30.01 "Hg10 mi
10:00 PM84 °FClear.20 mph37%30.01 "Hg10 mi
9:00 PM88 °FPassing clouds.17 mph29%29.95 "HgN/A
8:00 PM90 °FPassing clouds.20 mph29%29.95 "HgN/A
7:00 PM91 °FPassing clouds.18 mph28%29.92 "HgN/A
Weather by CustomWeather, © 2015

See weather overviewHow to use our weather pages